#timestamp,LO_Frequency,Hit,StdDev 
1704297615.4,286047002.5,N
1704297635.3,286047000.1,N
1704297655.1,286047000.0,N
1704297675.8,286047000.4,N
1704297695.7,286047001.9,N
1704297715.5,286047002.4,N
1704297735.4,286047000.4,N
1704297755.2,286046998.4,N
1704297775.0,286046998.2,N
1704297775.9,286046998.2,N
1704297795.8,286047001.0,N
1704297815.6,286047000.6,N
1704297835.5,286047000.9,N
1704297855.3,286047000.0,N
1704297875.1,286047002.7,N
1704297895.9,286046999.9,N
1704297915.7,286047000.1,N
1704297935.6,286047000.7,N
1704297955.4,286047000.3,N
1704297975.2,286047002.0,N
1704297995.1,286047004.2,Y
1704297996.0,286047004.2,P
1704298015.8,286047004.0,N
1704298035.7,286047002.9,N
1704298055.5,286047004.3,Y
1704298075.3,286046998.1,P
1704298095.2,286047000.7,N
1704298115.0,286047001.2,N
1704298115.9,286047001.2,N
1704298135.7,286047001.0,N
1704298155.6,286047000.8,N
1704298175.4,286047000.7,N
1704298195.3,286046998.5,N
1704298215.1,286046999.1,N
1704298216.0,286046999.1,N
1704298235.8,286046996.9,N
1704298255.7,286046997.3,N
1704298275.5,286046998.3,N
1704298295.3,286046997.0,N
1704298315.2,286046996.5,N
1704298335.0,286046999.3,N
1704298335.9,286046999.3,N
1704298355.8,286046997.1,N
1704298375.6,286046998.8,N
1704298395.4,286046998.2,N
1704298415.3,286047000.8,N
1704298435.1,286047000.1,N
1704298455.8,286047000.4,N
1704298475.7,286047002.5,N
1704298495.5,286047001.9,N
1704298515.4,286046999.9,N
1704298535.2,286047000.3,N
1704298555.0,286047000.2,N
1704298555.9,286047000.2,N
1704298575.8,286046999.0,N
1704298595.6,286046996.9,N
1704298615.4,286046997.7,N
1704298635.3,286046996.8,N
1704298655.1,286046999.6,N
1704298675.9,286046996.6,N
1704298695.7,286046999.3,N
1704298715.5,286046998.9,N
1704298735.4,286047000.7,N
1704298755.2,286046998.6,N
1704298775.0,286046998.9,N
1704298776.0,286046998.9,N
1704298795.8,286046999.0,N
1704298815.6,286046999.1,N
1704298835.5,286046999.0,N
1704298855.3,286046999.5,N
1704298875.1,286046998.9,N
1704298895.9,286046998.2,N
1704298915.7,286046999.3,N
1704298935.6,286046998.4,N
1704298955.4,286046998.6,N
1704298975.2,286046996.9,N
1704298995.1,286046998.3,N
1704298996.0,286046998.3,N
1704299015.8,286046999.5,N
1704299035.7,286046999.5,N
1704299055.5,286046999.5,N
1704299075.3,286046996.5,Y
1704299095.2,286046998.4,P
1704299115.0,286046999.0,P
1704299115.9,286046999.0,P
1704299135.8,286046999.1,Y
1704299155.6,286047000.2,P
1704299175.4,286047001.1,N
1704299195.3,286046996.9,P
1704299215.1,286046996.6,N
1704299235.8,286046999.4,N
1704299255.7,286046996.5,N
1704299275.5,286046999.5,N
1704299295.4,286046999.1,N
1704299315.2,286046997.0,N
1704299335.0,286046997.0,N
1704299335.9,286046997.0,N
1704299355.8,286046999.2,N
1704299375.6,286046997.0,N
1704299395.4,286046999.0,N
1704299415.3,286046999.3,N
1704299435.1,286046998.6,N
1704299455.9,286046999.3,N
1704299475.7,286046998.2,N
1704299495.5,286046998.4,N
1704299515.4,286046996.5,N
1704299535.2,286046999.3,N
1704299555.0,286046999.3,N
1704299555.9,286046999.3,N
1704299575.8,286046998.1,N
1704299595.6,286046998.2,N
1704299615.5,286046998.3,N
1704299635.3,286046999.0,N
1704299655.1,286046998.8,N
1704299675.9,286046996.6,N
1704299695.7,286046999.2,N
1704299715.5,286046999.5,N
1704299735.4,286046996.5,Y
1704299755.2,286047000.7,P
1704299775.1,286047000.6,N
1704299776.0,286047000.6,N
1704299795.8,286046999.7,N
1704299815.6,286047002.7,Y
1704299835.5,286047002.7,P
1704299855.3,286047001.6,N
1704299875.2,286047000.4,N
1704299895.9,286046999.7,N
1704299915.7,286047002.2,N
1704299935.6,286047002.6,N
1704299955.4,286047004.3,Y
1704299975.2,286047001.8,P
1704299995.1,286047003.6,P
1704299996.0,286047003.6,P
1704300015.8,286047005.5,Y
1704300035.7,286047001.9,P
1704300055.5,286047000.5,N
1704300075.4,286046998.1,N
1704300095.2,286047000.3,N
1704300115.0,286046998.6,N
1704300115.9,286046998.6,N
1704300135.8,286046998.8,N
1704300155.6,286046998.8,N
1704300175.4,286046998.1,N
1704300195.3,286046999.2,N
1704300215.1,286046999.5,N
1704300235.9,286046996.6,N
1704300255.7,286046997.9,N
1704300275.5,286046997.6,N
1704300295.4,286046996.8,N
1704300315.2,286046996.7,N
1704300335.1,286046997.3,N
1704300336.0,286046997.3,N
1704300355.8,286046996.8,N
1704300375.6,286046998.9,N
1704300395.5,286046998.9,N
1704300415.3,286046998.9,N
1704300435.1,286046998.7,N
1704300455.9,286046998.5,N
1704300475.7,286046996.5,N
1704300495.6,286046996.5,N
1704300515.4,286046998.9,N
1704300535.2,286046998.9,N
1704300555.1,286046998.7,N
1704300556.0,286046998.7,N
1704300575.8,286046999.1,N
1704300595.6,286046999.1,N
1704300615.5,286046998.8,N
1704300635.3,286047000.9,N
1704300655.2,286047000.5,N
1704300675.9,286047000.9,N
1704300695.7,286047000.6,N
1704300715.6,286047000.2,N
1704300735.4,286047000.4,N
1704300755.2,286047000.8,N
1704300775.1,286047000.0,N
1704300776.0,286047000.0,N
1704300795.8,286047001.2,N
1704300815.7,286046999.0,N
1704300835.5,286046998.9,N
1704300855.3,286046998.4,N
1704300875.2,286046999.1,N
1704300895.0,286046999.2,N
1704300895.9,286046999.2,N
1704300915.8,286046999.4,N
1704300935.6,286046998.9,N
1704300955.4,286046999.0,N
1704300975.3,286046998.9,N
1704300995.1,286046999.0,N
1704301015.8,286046999.2,N
1704301035.7,286046999.1,N
1704301055.5,286046997.2,Y
1704301075.4,286046999.1,P
1704301095.2,286046996.9,P
1704301115.0,286046998.3,N
1704301115.9,286046998.3,N
1704301135.8,286046998.1,N
1704301155.6,286047001.2,N
1704301175.5,286046998.4,N
1704301195.3,286046997.8,N
